EST,Max TemperatureF,Mean TemperatureF,Min TemperatureF,Max Dew PointF,MeanDew PointF,Min DewpointF,Max Humidity, Mean Humidity, Min Humidity, Max Sea Level PressureIn, Mean Sea Level PressureIn, Min Sea Level PressureIn, Max VisibilityMiles, Mean VisibilityMiles, Min VisibilityMiles, Max Wind SpeedMPH, Mean Wind SpeedMPH, Max Gust SpeedMPH,PrecipitationIn, CloudCover, Events, WindDirDegrees
2011-12-1,37,32,26,29,25,21,81,74,57,30.27,30.23,30.15,10,10,3,10,7,,0.00,4,Snow,219
2011-12-2,33,27,21,32,26,20,96,88,69,30.51,30.37,30.23,10,6,1,14,6,20,0.08,5,Snow,309
2011-12-3,43,33,24,34,30,22,93,84,71,30.48,30.32,30.08,10,8,5,17,9,23,0.03,5,Rain,174
2011-12-4,51,46,39,47,42,34,93,86,65,30.21,30.02,29.93,10,9,3,20,14,30,0.12,8,Rain,222
2011-12-5,39,36,32,36,30,24,93,79,70,30.33,30.28,30.21,10,10,10,13,8,,0.00,4,,4
2011-12-6,33,32,30,25,24,22,80,73,69,30.29,30.22,30.12,10,10,10,13,9,,0.00,8,,339
2011-12-7,36,30,25,23,21,16,81,67,46,30.11,29.99,29.88,10,10,9,17,9,23,0.00,7,,260
2011-12-8,36,30,25,27,22,17,85,70,50,30.15,30.10,30.02,10,10,10,23,12,32,0.00,3,,239
2011-12-9,32,26,17,26,16,9,81,66,45,30.35,30.21,30.13,10,9,2,18,10,25,0.00,4,Snow,262
2011-12-10,28,22,15,13,11,9,77,63,47,30.48,30.42,30.34,10,10,10,21,10,26,0.00,1,,240
2011-12-11,41,32,23,24,19,10,75,62,51,30.43,30.40,30.37,10,10,10,20,12,29,0.00,2,,208
2011-12-12,43,35,27,30,25,21,78,67,58,30.45,30.41,30.38,10,10,9,12,8,,0.00,3,,211
2011-12-13,42,38,34,31,28,26,76,67,58,30.44,30.40,30.34,10,10,7,8,5,,0.00,8,,202
2011-12-14,52,43,36,50,40,31,100,93,79,30.32,30.03,29.71,9,3,1,14,7,,0.27,8,Rain,171
2011-12-15,55,44,32,54,42,22,94,82,66,30.01,29.68,29.54,10,8,2,31,19,43,0.02,8,Rain-Snow,248
2011-12-16,33,30,28,24,22,17,75,68,60,30.33,30.26,30.06,10,10,10,17,13,24,0.00,7,,295
2011-12-17,30,28,26,27,20,14,93,74,56,30.34,30.24,30.12,10,9,2,10,7,,0.00,8,Snow,165
2011-12-18,37,33,30,30,27,23,93,79,66,30.22,30.10,29.88,10,8,4,16,9,23,0.00,6,Snow,230
2011-12-19,44,38,32,37,31,21,79,71,64,30.23,29.94,29.78,10,10,7,22,14,28,0.00,6,,282
2011-12-20,35,32,28,29,23,20,82,71,61,30.26,30.12,29.89,10,10,10,9,6,,0.00,7,,119
2011-12-21,37,35,33,37,34,30,100,94,81,29.90,29.76,29.61,10,4,0,12,5,,0.02,7,Fog-Rain,258
2011-12-22,37,34,28,34,32,21,100,89,72,30.20,30.07,29.93,10,7,3,18,7,21,0.00,7,,297
2011-12-23,28,24,21,23,17,13,88,70,63,30.36,30.28,30.18,10,9,2,16,9,,0.00,7,Snow,179
2011-12-24,35,30,24,27,25,21,91,81,70,30.37,30.25,30.09,10,9,2,20,8,25,0.00,6,Snow,182
2011-12-25,42,37,32,33,29,27,88,76,60,30.21,30.02,29.87,10,10,9,21,14,29,0.00,5,,259
2011-12-26,45,39,33,29,27,24,78,64,52,30.28,30.13,29.86,10,10,10,21,10,23,0.00,3,,223
2011-12-27,39,33,26,34,30,18,100,86,65,29.85,29.60,29.44,10,5,1,25,10,36,0.25,8,Rain-Snow,229
2011-12-28,25,20,16,16,12,7,84,68,53,30.05,29.96,29.78,10,10,10,22,14,29,0.00,2,,297
2011-12-29,36,28,21,33,26,16,93,86,77,29.96,29.71,29.58,10,4,1,13,8,,0.02,8,Snow,141
2011-12-30,37,36,34,35,33,32,97,90,86,29.78,29.69,29.61,6,4,2,15,8,,0.21,8,Rain,90
2011-12-31,37,36,35,35,33,30,97,89,79,30.01,29.89,29.66,10,8,2,14,9,,0.00,7,,277